Regional Weather Roundup
Issued by NWS Newport/Morehead, NC

Home | Current Version | Previous Version | Text Only | Print | Product List | Glossary On
Versions: 1 2 3 4 5 6 7 8 9 10 11 12 13 14 15 16 17 18 19 20 21 22 23 24 25 26 27 28 29 30 31 32 33 34 35 36 37 38 39 40 41 42 43 44 45 46 47 48 49 50
000
ASUS42 KMHX 280222
RWRMHX
WEATHER ROUNDUP FOR EASTERN NORTH CAROLINA
NATIONAL WEATHER SERVICE NEWPORT/MOREHEAD CITY NC
900 PM EST THU NOV 27 2014

NOTE: "FAIR" INDICATES FEW OR NO CLOUDS BELOW 12,000 FEET
WITH NO SIGNIFICANT WEATHER AND/OR OBSTRUCTIONS TO VISIBILITY

NCZ015>017-031-032-045>047-102-103-280300-
NORTH COAST

CITY           SKY/WX    TMP DP  RH WIND       PRES   REMARKS
EDENTON        CLOUDY    41  39  93 NW5       30.18R
ELIZABETH CITY PTCLDY    43  36  76 NW8       30.16R
KITTY HAWK     PTCLDY    43  36  76 NW8       30.12R
MANTEO         CLEAR     43  36  75 NW8       30.14R

$$

NCZ045>047-081-094-103-104-280300-
CENTRAL COAST

CITY           SKY/WX    TMP DP  RH WIND       PRES   REMARKS
FRISCO         PTCLDY    44  39  82 NW15G24   30.13R
SWANQUARTER      N/A     41 N/A N/A NW6       30.12S

$$

NCZ095-097-098-100-101-280300-
SOUTHERN COAST

CITY           SKY/WX    TMP DP  RH WIND       PRES   REMARKS
BEAUFORT       CLEAR     44  39  82 NW17      30.17R
CEDAR ISLAND     N/A     46 N/A N/A NW22      30.18S
JACKSONVILLE   CLEAR     41  37  86 NW7       30.19R
PINEY ISLAND   PTCLDY    46  40  79 NW10      30.16R
WILMINGTON     CLEAR     41  36  82 NW5       30.21R


$$

NCZ011>013-027>030-043-044-078>080-089-090>093-098-280300-
COASTAL PLAIN

CITY           SKY/WX    TMP DP  RH WIND       PRES   REMARKS
AHOSKIE        CLOUDY    40  38  93 CALM      30.19R
CLINTON        CLEAR     42  36  79 NW6       30.23R
ELIZABETHTOWN  CLEAR     42  33  71 NW6       30.23R
GOLDSBORO      CLEAR     42  39  91 NW9       30.20R
GREENVILLE     CLEAR     41  34  75 NW3       30.21R
HAVELOCK       CLEAR     43  37  79 NW12      30.19R
KENANSVILLE    CLEAR     41  35  78 NW7       30.23R
KINSTON        CLEAR     39  36  87 NW9       30.21R
NEW BERN       CLEAR     43  36  76 NW9       30.20R
RICHLANDS      CLEAR     37  34  87 W3        30.21R
ROCKY MOUNT    PTCLDY    40  29  64 NW12G18   30.21R
WASHINGTON     PTCLDY    39  37  91 CALM      30.19R
WHITEVILLE     CLEAR     39  37  90 CALM      30.22R

$$

AMZ130-135-150-152-154-156-158-170-250-252-270-ANZ085-086-088-633-658-670-280300-
MARINE OBSERVATIONS

STATION/POSITION TIME  TEMP    WIND        PRES    WAVE   SWELL
                       AIR SEA DIR/SP/G            HT/PER HT/PER
                 (UTC) (F)     (DEG/KT/KT) (MB)    (FT/S) (FT/S)
CHESAPEAKE LIGHT 0200   44     340/ 16/ 17 1021.0
64 E VA BEACH    0200   49 64  340/ 21/ 27 1017.9    6/ 5   2/ 8
DUCK             0200   44 53  320/ 14/ 19 1019.5
2 E DUCK         0200      54                N/A     5/ 5   2/11
10 NE DUCK       0200      57                N/A     5/ 5   2/14
OREGON INLET     0200   45 56  320/ 15/ 19 1020.0
13E OREGON INLT  0200      60                N/A     6/ 5   2/11
HATTERAS CG      0200   46 59  330/ 18/ 23 1020.8
DIAMOND BUOY     0200   48     310/ 21/ 27 1019.0    7/ 5   3/ 9
17 S OCRACOKE    NOT AVBL
CAPE LOOKOUT     0200   46     310/ 15/ 17 1021.4
BEAUFORT LAB     0200   44 56  320/  8/ 12 1020.7
30 SE NEW RIVER  0200   51 66  330/ 23/ 31 1021.4    6/ 6   2/14
5 SE WRIGHTSVLE  0200   45 59  330/ 16/ 19 1022.6
225 S CAPE HAT   0109   63 73  310/ 21/ 27 1018.2   13/ 8
41 SE CHARLESTON 0200   56 72  320/ 19/ 25 1022.7    6/ 5   2/10

$$


USA.gov is the U.S. government's official web portal to all federal, state and local government web resources and services.